Stations météo

réclame
Mon MeteoGroup
Alencon, France (7139): Température de l'air & dewpoint: 11.01.2018 07:00:00 - 17.01.2018 07:00:00 (CET)Alencon, France (7139): Température de l'air 5cm: 11.01.2018 07:00:00 - 17.01.2018 07:00:00 (CET)Alencon, France (7139): Température de l'air -20cm & Température de l'air -100cm: 11.01.2018 07:00:00 - 17.01.2018 07:00:00 (CET)Alencon, France (7139): Vitesse du vent & gusts: 11.01.2018 07:00:00 - 17.01.2018 07:00:00 (CET)Alencon, France (7139): Direction du vent: 11.01.2018 07:00:00 - 17.01.2018 07:00:00 (CET)Alencon, France (7139): reduced air pressure: 11.01.2018 07:00:00 - 17.01.2018 07:00:00 (CET)Alencon, France (7139): visibility: 11.01.2018 07:00:00 - 17.01.2018 07:00:00 (CET)Alencon, France (7139): Ensoleillement: 11.01.2018 07:00:00 - 17.01.2018 07:00:00 (CET)Alencon, France (7139): Quantités de précipitations: 11.01.2018 07:00:00 - 17.01.2018 07:00:00 (CET)
Date & Time tt [°C] td [°C] tt 5cm [°C] tt -20cm [°C] tt -100cm [°C] ff [km/h] ff [knt] fx [km/h] fx [knt] dd ppp [hPa] vv [km] sd [min] rr [mm]
17.01.2018 07:00:00 3,3 1,8 1,9 6,8 8,3 22 12 40 22 WSW 1011,4 10 0 0,4
17.01.2018 06:00:00 3,0 1,5 0,4 6,9 8,3 18 10 31 17 W 1010,5 13 0 0,0
17.01.2018 05:00:00 1,7 0,7 0,0 6,9 8,3 14 7 62 33 WSW 1009,3 20 0 0,8
17.01.2018 04:00:00 3,0 0,7 1,5 7,0 8,3 23 12 43 23 W 1008,6 20 0 0,0
17.01.2018 03:00:00 3,6 1,5 2,3 7,0 8,3 39 21 68 37 W 1007,9 10 0 0,4
17.01.2018 02:00:00 3,4 1,4 2,2 7,1 8,3 23 13 41 22 W 1006,9 20 0 0,0
17.01.2018 01:00:00 3,5 2,0 2,2 7,1 8,3 22 12 54 29 W 1007,0 20 0 0,6
17.01.2018 00:00:00 4,5 2,2 2,5 7,2 8,3 26 14 45 24 WNW 1005,8 10 0 1,8
16.01.2018 23:00:00 4,9 2,6 2,8 7,2 8,3 19 10 46 25 W 1004,4 20 0 0,0
16.01.2018 22:00:00 5,2 3,2 4,1 7,2 8,3 29 16 48 26 W 1004,8 13 0 0,6
16.01.2018 21:00:00 5,5 3,3 4,2 7,3 8,3 18 10 59 32 W 1004,4 20 0 0,4
16.01.2018 20:00:00 6,7 3,8 4,7 7,3 8,4 21 11 40 22 W 1004,2 20 0 0,0
16.01.2018 19:00:00 6,6 4,3 5,1 7,3 8,3 23 12 37 20 W 1004,4 20 0 0,6
16.01.2018 18:00:00 7,0 4,0 5,0 7,3 8,4 29 16 53 28 W 1004,6 20 0 0,0
16.01.2018 17:00:00 8,0 3,8 6,4 7,2 8,3 24 13 40 21 W 1004,9 20 18 0,0
16.01.2018 16:00:00 8,1 4,5 6,3 7,2 8,4 22 12 55 30 W 1004,8 20 12 0,2
16.01.2018 15:00:00 7,6 5,2 6,5 7,2 8,3 33 18 61 33 WNW 1005,3 6 13 0,4
16.01.2018 14:00:00 7,9 5,4 6,9 7,2 8,3 33 18 62 34 W 1005,8 11 0 1,0
16.01.2018 13:00:00 8,8 6,4 7,8 7,2 8,3 19 10 40 22 WNW 1006,1 15 2 0,0
16.01.2018 12:00:00 9,1 6,0 8,8 7,2 8,4 24 13 48 26 WSW 1006,2 20 23 0,0
16.01.2018 11:00:00 8,9 6,0 7,2 7,2 8,3 26 14 41 22 W 1006,2 16 5 0,2
16.01.2018 10:00:00 8,4 5,7 6,1 7,2 8,4 21 11 47 25 W 1005,7 18 9 0,0
16.01.2018 09:00:00 8,4 5,1 6,2 7,1 8,4 34 18 54 29 W 1005,0 20 0 0,2
16.01.2018 08:00:00 8,4 6,4 7,2 7,1 8,4 29 15 42 23 WNW 1004,6 5 0 0,6
16.01.2018 07:00:00 8,9 6,7 7,2 7,1 8,4 26 14 42 23 WSW 1003,3 20 0 0,0
16.01.2018 06:00:00 8,3 7,4 7,3 7,1 8,4 24 13 38 21 WSW 1003,3 9 0 0,2
16.01.2018 05:00:00 8,2 7,3 7,0 7,1 8,4 25 13 39 21 WSW 1003,6 4,5 0 0,2
16.01.2018 04:00:00 8,1 6,4 6,5 7,1 8,4 20 11 39 21 W 1004,2 20 0 0,0
16.01.2018 03:00:00 8,4 6,2 6,8 7,0 8,4 23 13 51 27 W 1004,1 15 0 0,2
16.01.2018 02:00:00 8,4 7,0 7,1 7,0 8,4 22 12 39 21 WSW 1003,9 19 0 0,0
16.01.2018 01:00:00 8,6 6,6 6,8 7,0 8,4 23 12 48 26 WSW 1004,3 20 0 0,2
16.01.2018 00:00:00 8,8 7,1 7,6 7,0 8,4 27 14 46 25 W 1004,6 12 0 0,4
15.01.2018 23:00:00 8,4 7,5 7,4 7,0 8,4 16 9 28 15 SW 1004,8 5 0 0,4
15.01.2018 22:00:00 8,9 6,3 7,5 6,9 8,4 18 10 39 21 WSW 1004,6 20 0 0,0
15.01.2018 21:00:00 9,1 7,0 7,5 6,9 8,4 21 11 32 17 WSW 1004,7 20 0 0,0
15.01.2018 20:00:00 8,6 7,1 7,1 6,8 8,4 9 5 36 20 WSW 1004,7 20 0 0,0
15.01.2018 19:00:00 8,8 7,1 7,5 6,8 8,4 22 12 42 23 W 1004,3 20 0 0,0
15.01.2018 18:00:00 10,3 8,4 8,9 6,7 8,4 21 11 41 22 W 1003,7 16 0 0,0
15.01.2018 17:00:00 10,4 8,3 9,4 6,7 8,4 20 11 39 21 W 1003,1 20 0 0,4
15.01.2018 16:00:00 9,9 9,3 8,8 6,6 8,4 23 13 43 23 SW 1002,8 3,9 0 1,2
15.01.2018 15:00:00 9,1 8,5 8,0 6,6 8,4 25 14 43 23 SW 1003,2 2,6 0 1,8
15.01.2018 14:00:00 8,1 7,7 7,0 6,6 8,4 24 13 40 22 SSW 1004,7 4,2 0 3,1
15.01.2018 13:00:00 7,3 6,9 6,5 6,6 8,4 27 14 42 23 SSW 1006,7 5 0 3,0
15.01.2018 12:00:00 6,7 6,1 6,1 6,6 8,4 26 14 43 23 SSW 1009,2 6 0 1,6
15.01.2018 11:00:00 6,2 5,6 5,4 6,6 8,5 22 12 34 18 SSW 1011,2 7 0 0,8
15.01.2018 10:00:00 5,6 5,2 4,8 6,5 8,4 19 11 34 19 SSW 1012,6 8 0 0,0
15.01.2018 09:00:00 4,9 4,6 4,5 6,6 8,5 15 8 25 13 SSW 1013,8 7 0 0,0
15.01.2018 08:00:00 4,7 4,6 4,2 6,5 8,4 10 5 25 14 SSW 1014,6 6 0 0,0
15.01.2018 07:00:00 4,4 4,3 3,9 6,6 8,5 13 7 23 12 SSW 1015,7 4,1 0 0,0
15.01.2018 06:00:00 4,0 4,0 3,8 6,6 8,5 12 6 21 11 S 1016,4 2,3 0 0,0
15.01.2018 05:00:00 4,2 4,2 3,8 6,6 8,5 15 8 24 13 SSW 1016,7 4,8 0 0,0
15.01.2018 04:00:00 4,2 4,2 3,5 6,6 8,5 9 5 16 8 SSW 1017,9 2,7 0 0,0
15.01.2018 03:00:00 3,6 3,6 3,3 6,6 8,5 9 5 19 10 SSW 1018,8 0,7 0 0,0
15.01.2018 02:00:00 3,4 3,4 3,2 6,6 8,5 10 6 17 9 SSW 1019,1 0,4 0 0,0
15.01.2018 01:00:00 3,4 3,4 3,1 6,6 8,5 9 5 15 8 SSW 1019,6 2,4 0 0,0
15.01.2018 00:00:00 3,4 3,4 3,3 6,6 8,5 9 5 13 7 SSW 1020,5 0,6 0 0,0
14.01.2018 23:00:00 3,5 3,5 3,3 6,6 8,5 6 3 10 6 SSW 1020,5 0,3 0 0,0
14.01.2018 22:00:00 3,4 3,3 3,3 6,6 8,5 5 3 16 8 S 1020,0 0,3 0 0,0
14.01.2018 21:00:00 3,4 3,3 2,9 6,6 8,5 7 4 13 7 WSW 1019,9 0,3 0 0,0
14.01.2018 20:00:00 3,0 2,9 2,5 6,6 8,5 5 3 8 5 WSW 1019,4 1,4 0 0,0
14.01.2018 19:00:00 2,9 2,8 3,0 6,6 8,5 0 0 8 4 N 1019,5 2,8 0 0,0
14.01.2018 18:00:00 2,7 2,6 2,9 6,5 8,5 2 1 5 3 W 1019,5 0,2 0 0,0
14.01.2018 17:00:00 2,8 2,7 3,4 6,5 8,5 3 1 7 4 N 1018,7 0,3 0 0,0
14.01.2018 16:00:00 2,6 2,5 3,6 6,5 8,5 3 2 6 3 NNE 1018,4 1,4 0 0,0
14.01.2018 15:00:00 2,4 2,3 4,2 6,5 8,5 3 2 8 4 SE 1018,1 1,0 0 0,0
14.01.2018 14:00:00 2,4 2,3 4,9 6,5 8,5 2 1 5 3 E 1018,0 1,0 0 0,0
14.01.2018 13:00:00 2,0 2,0 3,9 6,5 8,5 2 1 5 3 ENE 1018,3 0,5 0 0,0
14.01.2018 12:00:00 1,6 1,6 2,1 6,5 8,6 2 1 5 3 SW 1018,4 0,2 0 0,0
14.01.2018 11:00:00 1,0 1,0 1,0 6,6 8,5 2 1 13 7 ESE 1018,1 0,2 0 0,0
14.01.2018 10:00:00 0,8 0,7 0,5 6,6 8,5 9 5 16 9 ENE 1017,3 0,1 0 0,0
14.01.2018 09:00:00 0,6 0,5 0,5 6,6 8,5 9 5 15 8 ENE 1017,2 0,2 0 0,0
14.01.2018 08:00:00 1,0 0,7 -1,9 6,7 8,6 11 6 16 8 NE 1016,8 1,9 0 0,0
14.01.2018 07:00:00 0,5 0,1 -1,4 6,7 8,6 5 3 11 6 NE 1016,3 2,5 0 0,0
14.01.2018 06:00:00 0,8 0,2 -0,8 6,8 8,6 8 4 14 8 NNE 1015,9 2,7 0 0,0
14.01.2018 05:00:00 1,4 0,8 -0,3 6,8 8,5 9 5 13 7 NE 1015,7 3,5 0 0,0
14.01.2018 04:00:00 1,5 0,8 0,1 6,8 8,5 7 4 14 7 NE 1015,7 3,8 0 0,0
14.01.2018 03:00:00 2,3 1,4 1,4 6,9 8,6 9 5 15 8 NNE 1015,6 4,4 0 0,0
14.01.2018 02:00:00 2,2 1,3 1,3 6,9 8,6 9 5 13 7 NE 1015,8 5 0 0,0
14.01.2018 01:00:00 1,9 1,0 0,5 6,9 8,6 6 3 11 6 NE 1016,0 6 0 0,0
14.01.2018 00:00:00 2,1 0,9 1,0 6,9 8,6 4 2 14 8 NE 1016,1 7 0 0,0
13.01.2018 23:00:00 3,0 1,2 2,7 7,0 8,6 8 4 17 9 ESE 1016,3 11 0 0,0
13.01.2018 22:00:00 3,4 1,4 3,1 7,0 8,5 9 5 19 11 ESE 1016,5 11 0 0,0
13.01.2018 21:00:00 3,4 1,8 3,0 7,0 8,6 10 5 16 9 ESE 1016,7 10 0 0,0
13.01.2018 20:00:00 3,3 1,7 3,0 7,0 8,5 10 5 17 9 ESE 1017,0 10 0 0,0
13.01.2018 19:00:00 3,2 1,6 3,1 7,0 8,6 15 8 25 13 E 1017,1 10 0 0,0
13.01.2018 18:00:00 3,8 2,3 3,5 7,0 8,6 13 7 26 14 E 1016,9 8 0 0,0
13.01.2018 17:00:00 4,5 2,4 4,4 7,0 8,6 13 7 21 11 E 1016,8 13 0 0,0
13.01.2018 16:00:00 4,6 2,8 4,7 7,0 8,6 11 6 22 12 E 1017,1 12 0 0,0
13.01.2018 15:00:00 4,7 2,7 5,2 7,0 8,6 10 5 23 12 ESE 1017,4 13 0 0,0
13.01.2018 14:00:00 4,5 2,7 5,4 6,9 8,6 14 7 20 11 E 1017,9 17 0 0,0
13.01.2018 13:00:00 4,8 2,8 5,5 7,0 8,6 10 5 18 10 ESE 1018,7 14 0 0,0
13.01.2018 12:00:00 4,8 3,3 5,3 6,9 8,6 10 5 17 9 SE 1019,4 10 0 0,0
13.01.2018 11:00:00 4,5 3,0 4,5 7,0 8,6 9 5 23 12 SE 1019,8 10 0 0,0
13.01.2018 10:00:00 4,3 3,1 3,9 7,0 8,6 8 5 17 9 SE 1020,0 8 0 0,0
13.01.2018 09:00:00 4,1 3,1 3,8 7,0 8,6 9 5 19 11 SE 1020,2 7 0 0,0
13.01.2018 08:00:00 4,1 3,4 3,8 7,1 8,6 8 4 16 9 SE 1020,4 6 0 0,0
13.01.2018 07:00:00 4,1 3,7 3,5 7,1 8,6 7 4 13 7 ESE 1020,5 3,8 0 0,0
13.01.2018 06:00:00 3,9 3,5 2,8 7,2 8,6 8 5 19 10 ESE 1020,8 3,2 0 0,0
13.01.2018 05:00:00 3,6 3,2 -1,2 7,2 8,6 10 5 16 9 ESE 1021,5 3,0 0 0,0
13.01.2018 04:00:00 2,5 2,1 -2,8 7,2 8,6 3 2 9 5 E 1022,2 7 0 0,0
13.01.2018 03:00:00 2,6 1,4 -2,7 7,2 8,6 0 0 6 3 N 1022,8 10 0 0,0
13.01.2018 02:00:00 4,1 2,3 0,5 7,3 8,6 0 0 8 4 N 1023,0 12 0 0,0
13.01.2018 01:00:00 4,5 3,2 3,6 7,3 8,6 3 1 8 4 S 1023,7 11 0 0,0
13.01.2018 00:00:00 4,7 3,4 4,1 7,3 8,6 4 2 8 5 SE 1024,2 11 0 0,0
12.01.2018 23:00:00 4,9 3,2 4,3 7,3 8,6 5 3 9 5 S 1024,9 14 0 0,0
12.01.2018 22:00:00 4,9 2,9 4,3 7,3 8,6 4 2 8 5 SE 1025,3 17 0 0,0
12.01.2018 21:00:00 4,9 2,9 4,5 7,3 8,6 4 2 11 6 SE 1025,7 18 0 0,0
12.01.2018 20:00:00 4,8 2,8 4,3 7,3 8,6 5 3 13 7 S 1025,8 19 0 0,0
12.01.2018 19:00:00 4,8 2,8 4,4 7,3 8,6 4 2 7 4 S 1025,6 18 0 0,0
12.01.2018 18:00:00 4,7 2,4 4,3 7,3 8,6 2 1 10 6 S 1025,7 19 0 0,0
12.01.2018 17:00:00 4,7 2,4 4,7 7,3 8,6 6 3 10 5 S 1025,8 20 0 0,0
12.01.2018 16:00:00 4,7 2,9 5,3 7,3 8,6 4 2 8 5 SW 1026,0 18 0 0,0
12.01.2018 15:00:00 4,4 3,2 4,9 7,2 8,6 3 2 11 6 S 1026,1 12 0 0,0
12.01.2018 14:00:00 4,2 3,2 5,2 7,3 8,6 6 3 13 7 S 1026,7 12 0 0,0
12.01.2018 13:00:00 4,2 3,8 4,6 7,3 8,6 0 0 11 6 N 1027,2 3,2 0 0,0
12.01.2018 12:00:00 4,0 3,4 4,6 7,3 8,6 5 3 16 9 SSW 1027,6 6 0 0,0
12.01.2018 11:00:00 3,9 3,6 3,9 7,3 8,6 8 4 13 7 ESE 1027,0 6 0 0,0
12.01.2018 10:00:00 3,7 3,4 3,5 7,4 8,6 5 3 15 8 E 1027,1 2,2 0 0,0
12.01.2018 09:00:00 3,8 3,2 3,7 7,4 8,6 9 5 16 9 E 1026,7 3,8 0 0,0
12.01.2018 08:00:00 3,9 3,2 3,8 7,4 8,6 8 5 16 9 NE 1026,4 5 0 0,0
12.01.2018 07:00:00 4,3 3,3 4,2 7,4 8,6 9 5 15 8 ENE 1026,3 6 0 0,0
12.01.2018 06:00:00 4,6 3,6 4,3 7,4 8,6 5 3 13 7 NNE 1026,2 9 0 0,0
12.01.2018 05:00:00 4,9 3,9 4,6 7,4 8,6 5 3 9 5 N 1026,1 10 0 0,0
12.01.2018 04:00:00 4,9 3,7 4,6 7,4 8,6 5 3 15 8 ENE 1025,6 8 0 0,0
12.01.2018 03:00:00 5,0 4,3 2,3 7,5 8,6 10 6 15 8 ENE 1025,0 7 0 0,0
12.01.2018 02:00:00 5,2 4,5 4,1 7,5 8,6 5 3 7 4 N 1025,1 6 0 0,0
12.01.2018 01:00:00 5,4 4,7 5,0 7,5 8,6 6 4 11 6 N 1025,3 7 0 0,0
12.01.2018 00:00:00 5,3 4,6 4,7 7,5 8,6 4 2 14 8 NNE 1024,9 7 0 0,0
11.01.2018 23:00:00 5,0 4,3 4,2 7,5 8,6 4 2 7 4 E 1024,4 9 0 0,0
11.01.2018 22:00:00 5,2 4,3 4,8 7,5 8,6 4 2 11 6 NNE 1023,7 8 0 0,0
11.01.2018 21:00:00 5,4 4,4 4,6 7,5 8,6 6 4 15 8 NE 1023,5 12 0 0,0
11.01.2018 20:00:00 5,5 4,3 4,1 7,5 8,6 9 5 17 9 N 1023,0 16 0 0,0
11.01.2018 19:00:00 5,7 4,3 5,2 7,5 8,6 11 6 17 9 N 1021,8 17 0 0,0
11.01.2018 18:00:00 5,9 4,7 5,7 7,5 8,6 13 7 22 12 NNE 1021,2 18 0 0,0
11.01.2018 17:00:00 6,0 5,1 5,9 7,5 8,6 11 6 20 11 NNE 1020,3 14 0 0,0
11.01.2018 16:00:00 6,6 5,2 6,8 7,4 8,6 14 8 21 11 N 1019,5 20 0 0,0
11.01.2018 15:00:00 7,2 6,1 7,9 7,4 8,6 11 6 19 11 NNE 1018,2 14 0 0,0
11.01.2018 14:00:00 7,4 6,0 7,7 7,4 8,7 13 7 19 10 NE 1017,5 20 0 0,0
11.01.2018 13:00:00 6,9 5,8 7,3 7,3 8,6 16 8 23 12 NNE 1016,9 18 0 0,0
11.01.2018 12:00:00 6,7 6,0 7,2 7,3 8,6 11 6 17 9 NNE 1016,1 14 6 0,0
11.01.2018 11:00:00 6,4 5,8 6,5 7,3 8,6 10 5 16 8 NNE 1015,2 11 30 0,0
11.01.2018 10:00:00 6,0 5,7 5,5 7,3 8,6 10 6 19 10 ENE 1014,3 8 3 0,0
11.01.2018 09:00:00 6,0 5,7 5,7 7,3 8,6 11 6 18 10 NE 1013,1 3,3 0 0,6
11.01.2018 08:00:00 6,1 5,7 5,7 7,4 8,6 10 5 16 8 ENE 1011,8 6 0 0,0
11.01.2018 07:00:00 6,0 5,6 5,6 7,4 8,6 10 5 15 8 ENE 1010,5 11 0 0,0

tt = Température de l'air
td = dewpoint
tt 5cm = Température de l'air 5cm
tt -20cm = Température de l'air -20cm
tt -100cm = Température de l'air -100cm
ff = Vitesse du vent
fx = gusts
dd = Direction du vent
ppp = reduced air pressure
vv = visibility
sd = Ensoleillement
rr = Quantités de précipitations

stations d'obs. à proximité